Location: Napier
(39.4830°S, 176.9170°E)
Time: 22:38:55
(UTC+12:00)

ISS - Visible Passes

Search period start: 14 May 2021 00:00
Search period end: 24 May 2021 00:00
Orbit: 417 x 422 km, 51.6° (Epoch: 14 May)

Date Brightness Start Highest point End Pass type
(mag) Time Alt. Az. Time Alt. Az. Time Alt. Az.
19 May -0.6 06:27:00 10° N 06:29:22 18° NE 06:31:45 10° E visible
20 May 0.0 05:41:55 10° NE 05:42:07 10° NE 05:42:18 10° ENE visible
21 May -2.9 06:27:39 10° NW 06:30:59 54° NE 06:34:22 10° ESE visible
22 May -1.8 05:40:35 10° NNW 05:43:37 30° NE 05:46:41 10° ESE visible
23 May -1.1 04:55:42 17° NE 04:56:18 18° NE 04:58:42 10° E visible
23 May -3.5 06:29:30 10° WNW 06:32:50 50° SW 06:36:13 10° SE visible
